MyTimes logo

TIMES

Webb Imagery

5/02/2011
Cowes Classic
500m Swim / 4.0km Run

(Click on competitor name to view personalised results)

Name
Race #
Category
Team Name
Time
(h:mm:ss)
Avg Speed
km/hr
OAll
Place
Cat
Place
RHODES Jamie#296Senior Male" "0:23:09 11.7 11
ROWE Mark#280Senior Male" "0:23:13 11.6 22
NORMAN Jeff#832Team Male" "0:24:21 11.1 31
ALEXANDER Kylie#812Team Mixed" "0:25:06 10.8 41
MC HENRY David#830Team Male" "0:25:24 10.6 52
SMITH Ryan#272Senior Male" "0:25:30 10.6 63
CLARKSON Mack#251Senior Male" "0:25:33 10.6 74
WACHTER Aurel#3240-49 Male" "0:25:52 10.4 81
KHOURY Matthew#857Team Male" "0:25:58 10.4 93
BANKS Jessica#806Team Mixed" ATEAM"0:25:59 10.4 102
FLEISNER Rob#8550+ Male" "0:26:09 10.3 111
GUILLE Tim#212Senior Male" "0:26:16 10.3 125
KREAMER Matthew#850Team Male" "0:26:16 10.3 134
KAYE-HELMOT Georgia#847Team Female" "0:26:27 10.2 141
BATT Carey#281Senior Male" "0:26:34 10.2 156
DRAPAC James#859Team Male" "0:26:48 10.1 165
BILL Greg#8240-49 Male" "0:26:56 10 172
PLANT Luke#245Senior Male" "0:26:58 10 187
COLLINS Lind#820Team Mixed" "0:27:04 10 193
WAGNER Zach#843Team Male" "0:27:10 9.9 206
BUTT Chloe#214Senior Female" "0:27:11 9.9 211
WILLIAMS Kellie#275Senior Female" "0:27:48 9.7 222
TILLEY Justin#201Senior Male" "0:27:51 9.7 238
BENNET James#78Junior Male" "0:27:57 9.7 241
MANTEIT Michael#48Junior Male" "0:28:18 9.5 252
MOUNSEY Mark#7940-49 Male" "0:28:20 9.5 263
PANOPOULOS Matthew#821Team Male" "0:28:22 9.5 277
CROFT Greg#5250+ Male" "0:28:27 9.5 282
YUSKO Bill#8650+ Male" "0:28:28 9.5 293
DRENNON Amanda#839Team Mixed" "0:28:32 9.5 304
CROFT Baden#53Junior Male" "0:28:35 9.4 313
O'DEA Michael#858Team Male" "0:28:38 9.4 328
CORBETT Jim#5740-49 Male" "0:28:43 9.4 334
EVANS Brad#6240-49 Male" "0:29:04 9.3 345
WILSON Michael#818Team Mixed" TEAM KAPAI PUKU"0:29:39 9.1 355
TRAVERS Graham#844Team Male" "0:29:41 9.1 369
BOND Marcus#239Senior Male" "0:29:45 9.1 379
WALPOLE Stuart#226Senior Male" "0:29:49 9.1 3810
BYRNE Stephen#8150+ Male" "0:29:56 9 394
CROSS Gary#854Team Male" "0:30:02 9 4010
LEGGE Andrew#209Senior Male" "0:30:03 9 4111
BIBBY Anthony#305Senior Male" "0:30:04 9 4212
WEBB Danni#304Senior Female" "0:30:08 9 433
CONLEY Jane#802Team Female" CONLEY CATS"0:30:21 8.9 442
FOKKENS Ben#831Team Mixed" "0:30:22 8.9 456
WATSON Darcy#260Senior Male" "0:30:24 8.9 4613
DOUGALL Rebecca#848Team Mixed" "0:30:26 8.9 477
HOSKING Bob#863Team Male" "0:30:26 8.9 4811
JOHNSON Glen#2050+ Male" "0:30:30 8.9 495
DALLINGER Chris#865Team Male" "0:30:35 8.8 5012
MORRISON Mark#3340-49 Male" "0:30:40 8.8 516
JOHNSTONE Molly#851Team Mixed" "0:30:52 8.7 528
HOMER Ivan#2340-49 Male" "0:30:55 8.7 537
TYLER Mike#5150+ Male" "0:31:01 8.7 546
KELLY Chris#271Senior Male" "0:31:07 8.7 5514
HUMBERT Cara#822Team Female" "0:31:16 8.6 563
JACKSON Matthew#855Team Mixed" "0:31:17 8.6 579
FOOTE Isabella#833Team Female" "0:31:18 8.6 584
RIELLY Debbie#7640-49 Female" "0:31:32 8.6 591
FLEISNER Paul#846Team Male" "0:31:35 8.5 6013
TURNER Peter#4750+ Male" "0:31:38 8.5 617
COLLA Peter#828Team Male" MANNING"0:31:46 8.5 6214
ROSS Kyle#838Team Male" "0:31:52 8.5 6315
CHISHOLM Andy#3640-49 Male" "0:31:53 8.5 648
STINEAR Tim#1640-49 Male" "0:31:54 8.5 659
HARRIS Michelle#232Senior Female" "0:32:01 8.4 664
BUDGE David#1150+ Male" "0:32:07 8.4 678
SULLIVAN Matt#2Junior Male" "0:32:13 8.4 684
DRAPAL David#856Team Male" "0:32:14 8.4 6916
MATTHEWS Aaron#270Senior Male" "0:32:15 8.4 7015
MATTHEWS Jack#241Senior Male" "0:32:15 8.4 7116
TERLICH Chris#278Senior Male" "0:32:19 8.4 7217
TURNER Georgia#46Junior Female" "0:32:21 8.3 731
CUNNINGHAM Emma#267Senior Female" "0:32:23 8.3 745
LAVIN Mark#5450+ Male" "0:32:30 8.3 759
DAVIE Krystal#40Junior Female" "0:32:32 8.3 762
ENTER Alice#815Team Female" ENTER THE FOSTER"0:32:33 8.3 775
VITIRITTI Karina#308Senior Female" "0:32:40 8.3 786
GASTIN Michael#218Senior Male" "0:32:51 8.2 7918
GOSPER Elizabeth#8050+ Female" "0:32:52 8.2 801
CLARKSON Anna#252Senior Female" "0:33:05 8.2 817
BOURKE Lucy#307Senior Female" "0:33:09 8.1 828
BAILEY Simone#302Senior Female" "0:33:19 8.1 839
WOODHOUSE Christina#263Senior Female" "0:33:24 8.1 8410
RODGERS Andrew#1540-49 Male" "0:33:24 8.1 8510
WATTS Justin#309Senior Male" "0:33:27 8.1 8619
CROWE Susie#279Senior Female" "0:33:30 8.1 8711
LYNCH Ashley#247Senior Male" "0:33:32 8.1 8820
MALIOS Todd#810Team Male" TEAM TNT"0:33:33 8 8917
ENTER Fiona#862Team Mixed" "0:33:35 8 9010
HOPKINS Beau#262Senior Male" "0:33:43 8 9121
ZANETIDIS Con#3850+ Male" "0:33:43 8 9210
WISBET Tom#303Senior Male" "0:33:47 8 9322
ALEXANDER Gregory#261Senior Male" "0:33:52 8 9423
WOODWARD Nick#306Senior Male" "0:33:54 8 9524
MILLER Kate#299Senior Female" "0:33:57 8 9612
EDWARDS Molly#58Junior Female" "0:33:58 7.9 973
CONNELL Chelsea#59Junior Female" "0:33:59 7.9 984
FREEMAN Edward#288Senior Male" "0:34:03 7.9 9925
HARVINSON Yvette#284Senior Female" "0:34:04 7.9 10013
GRANT Warren#6850+ Male" "0:34:04 7.9 10111
LLOYD Karen#816Team Mixed" AUHL/LLOYD"0:34:07 7.9 10211
CROWE Damien#6750+ Male" "0:34:17 7.9 10312
GOLDE Tony#6640-49 Male" "0:34:18 7.9 10411
CROOKS Matt#853Team Mixed" "0:34:19 7.9 10512
SALTON Marcus#287Senior Male" "0:34:21 7.9 10626
TURNER Bridget#829Team Female" "0:34:30 7.8 1076
HARRIS Simon#233Senior Male" "0:34:31 7.8 10827
BROWN Stewart#240Senior Male" "0:34:33 7.8 10928
WILSON Matt#208Senior Male" "0:34:47 7.8 11029
STAFFORD Rachel#849Team Female" "0:34:53 7.7 1117
REARDON Elyse#294Senior Female" "0:35:04 7.7 11214
BELL Ashlea#41Junior Female" "0:35:07 7.7 1135
BAXTER Virginia#5640-49 Female" "0:35:10 7.7 1142
TIPPING Joel#236Senior Male" "0:35:18 7.6 11530
O'DONOHUE Mark#842Team Mixed" "0:35:24 7.6 11613
BUXTON Shane#860Team Male" "0:35:24 7.6 11718
CHANDLER Jacqui#4540-49 Female" "0:35:25 7.6 1183
RITTER Susan (Sue#841Team Mixed" "0:35:28 7.6 11914
BROWNE Rebecca#276Senior Female" "0:35:39 7.6 12015
LYNCH Brent#248Senior Male" "0:35:41 7.6 12131
WYAN Jess#298Senior Male" "0:35:43 7.6 12232
MORA Mauricio#210Senior Male" "0:35:45 7.6 12333
WATT Clayton#235Senior Male" "0:35:45 7.6 12434
HIBBLE Jenny#852Team Mixed" "0:35:51 7.5 12515
O'RYAN Mick#2250+ Male" "0:35:53 7.5 12613
HODGSON Cheryl#6140-49 Female" "0:36:02 7.5 1274
PEMBERTON Mark#311Senior Male" "0:36:03 7.5 12835
MAY Richard#8740-49 Male" "0:36:10 7.5 12912
LUCK Jarrod#205Senior Male" "0:36:11 7.5 13036
TUFF Stephen#277Senior Male" "0:36:29 7.4 13137
MANSON Xavier#254Senior Male" "0:36:44 7.4 13238
GAZZARD Katherine#249Senior Female" "0:36:49 7.3 13316
KRIKAS Michael#211Senior Male" "0:36:49 7.3 13439
FITZGERALD Amy#253Senior Female" "0:36:50 7.3 13517
STELZER Hermman#823Team Male" "0:36:51 7.3 13619
DIEDRICH Glenn#835Team Male" "0:37:00 7.3 13720
COX Bill#826Team Male" ALLAN POWERS"0:37:04 7.3 13821
HODGSON Murray#6440-49 Male" "0:37:04 7.3 13913
MARSHALL Sarah#268Senior Female" "0:37:09 7.3 14018
BRADEN Mick#4440-49 Male" "0:37:10 7.3 14114
DODD Jennifer#1450+ Female" "0:37:11 7.3 1422
ABLETT Zachary#244Senior Male" "0:37:13 7.3 14340
TILLIG Madeleine#258Senior Female" "0:37:18 7.2 14419
CHAPMAN Wayne#274Senior Male" "0:37:21 7.2 14541
WHITE Ken#4350+ Male" "0:37:25 7.2 14614
MC DONALD Dallas#265Senior Male" "0:37:26 7.2 14742
BUTLER Sarah#266Senior Female" "0:37:35 7.2 14820
DRYDEN Elisha#840Team Female" "0:37:36 7.2 1498
STEER Matthew#207Senior Male" "0:37:44 7.2 15043
STEPHENS Kristy#237Senior Female" "0:37:47 7.1 15121
STINEAR Gabrielle#837Team Female" "0:37:50 7.1 1529
MATTHEWS Robert#2950+ Male" "0:37:51 7.1 15315
JORDAN-HILL Lisa#801Team Female" TEAM MURRAY"0:37:55 7.1 15410
PETERSON Clare#224Senior Female" "0:37:56 7.1 15522
JORDAN-HILL Dean#813Team Male" LOCK STOCK 2 SMOKING"0:38:04 7.1 15622
CARR Vern#243Senior Male" "0:38:06 7.1 15744
BAILEY Annie#2850+ Female" "0:38:18 7 1583
SEK Josh#73Junior Male" "0:38:20 7 1595
SHEEDY Anthony#3440-49 Male" "0:38:26 7 16015
CAMERAON Jane#5550+ Female" "0:38:30 7 1614
HUNT Greg#140-49 Male" "0:38:38 7 16216
CHASTON Pete#6550+ Male" "0:38:39 7 16316
MATE Michael#216Senior Male" "0:38:49 7 16445
O'KEEFE Anne#824Team Mixed" "0:38:54 6.9 16516
TAYLOR Shane#39Junior Male" "0:39:06 6.9 1666
MC BAIN Gabrielle#286Senior Female" "0:39:22 6.9 16723
COLLISON Natasha#231Senior Female" "0:39:29 6.8 16824
WEBBER Neil#7140-49 Male" "0:39:39 6.8 16917
PLEYDELL Yvonne#845Team Mixed" YVONNE/ANNIKA"0:39:58 6.8 17017
SMITH Dennis#4250+ Male" "0:40:10 6.7 17117
LIDSEY Andrew#7540-49 Male" "0:40:20 6.7 17218
CAIN Greg#4950+ Male" "0:40:33 6.7 17318
WOODWARD Alison#540-49 Female" "0:40:48 6.6 1745
CARR Bec#242Senior Female" "0:40:52 6.6 17525
HARRISON Ross#297Senior Male" "0:40:57 6.6 17646
MC BAIN Simon#285Senior Male" "0:41:00 6.6 17747
HILL Brendon#291Senior Male" "0:41:11 6.6 17848
CARROLL Geoff#2640-49 Male" "0:41:14 6.5 17919
DALLINGER Brian#6350+ Male" "0:41:27 6.5 18019
CHENCO Carol#350+ Female" "0:41:37 6.5 1815
ZIMMERMAN Kirrily#228Senior Female" "0:41:39 6.5 18226
VANDERNAGEL Helen#6950+ Female" "0:41:43 6.5 1836
MIDDLETON Joanna#809Team Mixed" ROB-O-JO"0:41:54 6.4 18418
GOODE Thos#1350+ Male" "0:41:54 6.4 18520
PICKSTONE Steven#227Senior Male" "0:42:34 6.3 18649
GRAY Anthony#836Team Mixed" "0:43:12 6.3 18719
COWLEY Nicole#940-49 Female" "0:43:22 6.2 1886
WHINCOP Fiona#206Senior Female" "0:43:40 6.2 18927
BOURKE Edward#861Team Mixed" "0:43:46 6.2 19020
SHEPHERD Mark#257Senior Male" "0:43:55 6.1 19150
VANDER HEYDEN Natalie#282Senior Female" "0:43:59 6.1 19228
HALLIDAY Craig#817Team Male" ROTATING KNIVES"0:44:26 6.1 19323
MC GENNISKEN Kerry#290Senior Female" "0:44:55 6 19429
SMART Fiona#283Senior Female" "0:45:00 6 19530
CHRISTIANS Sandra#807Team Female" SAND LIZARDS"0:45:38 5.9 19611
SIDEBOTTOM Kate#825Team Mixed" TURTLE WEIR"0:45:54 5.9 19721
EMMETT Niki#740-49 Female" "0:45:58 5.9 1987
MOYLE Nikita#295Senior Female" "0:47:16 5.7 19931
SAUNDERS Beamion#301Senior Male" "0:48:01 5.6 20051
LLOYD Greg#6040-49 Male" "0:48:01 5.6 20120
ORWIN Maree#310Senior Female" "0:48:30 5.6 20232
ENTER Leo#864Team Mixed" "0:53:35 5 20322
REEK George#5050+ Male" "0:54:14 5 20421
COLE Ian#8350+ Male" "0:55:02 4.9 20522
HOSKING Robert#8450+ Male" "0:56:13 4.8 20623
KONTOGOURIS Earlene#7050+ Female" "1:09:56 3.9 2077